Hourly Data Report for October 06, 2017

All times are specified in Local Standard Time (LST). Add 1 hour to adjust for Daylight Saving Time where and when it is observed.

ARMSTRONG (AUT)
ONTARIO

50°17'37.000" N
88°54'19.000" W
322.50 m
6040325
71841
WYW

Download Data

Hourly Data (October 2017)
Hourly Data Report for October 6, 2017
Temp Definition
°C
Dew Point Temp Definition
°C
Rel Hum Definition
%
Wind Dir Definition
10's deg

Wind Spd Definition
km/h
Visibility Definition
km
Stn Press Definition
kPa
Hmdx Definition


Wind Chill Definition


Weather Definition


TIME
00:00 0.5 -2.0 84 29 9   97.65     LegendNANA
01:00 0.9 -1.7 83 29 10   97.63     LegendNANA
02:00 -2.1 -3.6 89 15 2   97.62   -3 LegendNANA
03:00 -2.9 -3.9 93 17 3   97.62   -4 LegendNANA
04:00 -3.3 -4.3 93 0 1   97.61   -4 LegendNANA
05:00 -1.9 -2.7 95 25 4   97.60   -3 LegendNANA
06:00 -3.1 -4.0 93 19 2   97.62   -4 LegendNANA
07:00 -3.6 -4.6 93 17 4   97.60   -5 LegendNANA
08:00 1.9 1.0 93 19 5   97.57     LegendNANA
09:00 6.5 1.6 71 25 10   97.57     LegendNANA
10:00 8.4 1.5 62 24 14   97.52     LegendNANA
11:00 10.5 1.6 54 25 15   97.47     LegendNANA
12:00 12.8 1.5 46 24 17   97.43     LegendNANA
13:00 14.0 0.4 39 24 15   97.40     LegendNANA
14:00 14.5 1.5 41 21 16   97.36     LegendNANA
15:00 15.4 1.3 39 21 11   97.23     LegendNANA
16:00 14.6 0.5 38 21 15   97.15     LegendNANA
17:00 13.7 1.3 43 20 8   97.07     LegendNANA
18:00 12.5 1.6 47 19 7   97.00     LegendNANA
19:00 10.3 1.5 54 19 4   96.95     LegendNANA
20:00 8.2 2.3 67 21 3   96.94     LegendNANA
21:00 10.3 1.8 56 21 5   96.92     LegendNANA
22:00 10.4 1.6 55 21 7   96.89     LegendNANA
23:00 9.3 1.9 60 18 6   96.81     LegendNANA

Notes on Data Quality.

Legend

  • E = Estimated
  • M = Missing
  • NA = Not Available
  • ‡ = Partner data that is not subject to review by the National Climate Archives
Date modified: